Flag for Canada Weather past 2 weeks in Caledon, Ontario, Canada

Now
61 °F

Mostly cloudy.


Feels Like: 61 °F
Forecast: 55 / 69 °F
Wind: 5 mph from Northwest

Location: Borden

Current Time: Jul 1, 2015 at 8:27:54 AM

Latest Report: Jul 1, 2015 at 8:01 AM


Visibility: 9 mi

Pressure: 29.74 "Hg

Humidity: 100%

Dew point: 61 °F

Location of CaledonLocation

Historic Weather in Caledon — Graph

°F

Caledon temperature yesterday

Maximum temperature yesterday: 72 °F (at 12:00 PM)
Minimum temperature yesterday: 52 °F (at 4:57 AM)
Average temperature yesterday: 60 °F

Past Weeks' High & Low Weather Summary

 TemperatureHumidityPressure
High82 °F (Jun 22, 3:00 PM)100% (Jun 16, 7:04 AM)30.20 "Hg (Jun 16, 7:04 AM)
Low41 °F (Jun 20, 4:00 AM)33% (Jun 26, 2:00 PM)29.60 "Hg (Jun 23, 5:00 AM)
Average63 °F81%29.93 "Hg
* Reported Jun 16 7:04 AM — Jul 1 7:00 AM, Caledon, Weather by CustomWeather, © 2015

Note: Actual official high and low records may vary slightly from our data, if they occured in-between our weather recording intervals... More about our weather records

Advertising

Caledon weather history for previous 24 hours

 ConditionsComfort  
Time TempWeatherWind HumidityBarometerVisibility
7:00 AM
Wed, Jul 1
59 °FLow clouds.5 mph100%29.74 "Hg9 mi
6:00 AM59 °FLow clouds.6 mph100%29.73 "Hg9 mi
5:50 AM59 °FLow clouds.6 mph100%29.72 "Hg9 mi
5:00 AM61 °FLow clouds.7 mph94%29.71 "Hg9 mi
4:51 AM61 °FLow clouds.7 mph100%29.71 "Hg9 mi
4:00 AM61 °FLow clouds.5 mph100%29.71 "Hg9 mi
3:56 AM61 °FLow clouds.5 mph100%29.71 "Hg9 mi
3:00 AM61 °FLow clouds.2 mph100%29.72 "Hg2 mi
2:58 AM61 °FLow clouds.2 mph100%29.72 "Hg2 mi
2:00 AM61 °FLow clouds.2 mph100%29.74 "Hg2 mi
1:56 AM61 °FMostly cloudy.2 mph100%29.74 "Hg2 mi
1:00 AM61 °FMostly cloudy.2 mph100%29.75 "Hg2 mi
12:57 AM61 °FMostly cloudy.No wind100%29.75 "Hg2 mi
12:02 AM61 °FLow clouds.3 mph100%29.75 "Hg3 mi
11:02 PM
Tue, Jun 30
61 °FLow clouds.2 mph100%29.77 "Hg2 mi
10:02 PM63 °FLow clouds.No wind100%29.77 "Hg2 mi
9:00 PM61 °FLow clouds.2 mph100%29.76 "Hg2 mi
8:54 PM61 °FLow clouds.3 mph100%29.76 "Hg2 mi
8:00 PM61 °FLow clouds.6 mph100%29.77 "Hg2 mi
7:00 PM63 °FLow clouds.8 mph100%29.77 "Hg7 mi
6:01 PM63 °FLow clouds.7 mph100%29.77 "Hg9 mi
5:02 PM63 °FLight rain. Low clouds.5 mph100%29.78 "Hg2 mi
4:00 PM63 °FLight rain. Overcast.6 mph94%29.80 "Hg3 mi
3:00 PM64 °FLight rain. Low clouds.6 mph94%29.81 "Hg5 mi
2:00 PM64 °FLight rain. Overcast.8 mph88%29.81 "Hg6 mi
1:00 PM70 °FBroken clouds.12 mph69%29.82 "Hg9 mi
12:00 PM72 °FPartly sunny.10 mph65%29.83 "Hg9 mi
11:00 AM68 °FMostly cloudy.12 mph73%29.84 "Hg9 mi
10:00 AM66 °FPartly sunny.3 mph83%29.85 "Hg9 mi
9:00 AM63 °FBroken clouds.No wind94%29.86 "Hg9 mi
8:00 AM61 °FSunny.No wind94%29.86 "Hg7 mi
Weather by CustomWeather, © 2015

See weather overviewHow to use our weather pages